Location: ??
(35.4627°N, 139.3695°E)
Time: 15:02:47
(UTC+00:00)

Cosmos 1898 Rocket - Pass Details

Date: 25 November 2020
Orbit: 754 x 783 km, 74.0° (Epoch: 20 January)

Event Time Altitude Azimuth Distance (km) Brightness Sun altitude
Rises 20:29:50 0° 202° (SSW) 3,233 6.7 -12.0°
Reaches altitude 10° 20:32:13 10° 205° (SSW) 2,314 5.9 -11.5°
Maximum altitude 20:37:27 69° 288° (WNW) 832 3.5 -10.5°
Drops below altitude 10° 20:42:46 10° 12° (NNE) 2,341 6.0 -9.5°
Sets 20:45:11 0° 15° (NNE) 3,275 6.7 -9.0°
